FLYING LAPTOP (42831 NORAD) Tracking and Keplerian Element Data

This shows tracking and keplerian element data for the satellite.

Feedback or suggestion? Click here.




ElementValue
Catalog42831
NameFLYING LAPTOP
Epoch Orbit37579
Epoch Day160.2136489
Epoch Year2024
RAAN341.6799
Inclination97.3853
Eccentricity0.0014247
Argument of Perigee105.4741
Mean Anonmoly254.8055
Mean Motion14.95115469
Decay Rate3.007E-05
L11 42831U 17042G 24160.21364890 .00003007 00000+0 27856-3 0 9998
L22 42831 97.3853 341.6799 0014247 105.4741 254.8055 14.95115469375799



Live tracking and technical data element details for FLYING LAPTOP (NORAD 42831). FLYING LAPTOP can be tracked NOW for your location showing map with azimuth and elevation plus other details from your city location.







IsCatalogInMostPopularTable: catalog: 42831, numindb: 713
Update: records affected: 1



GetName: 42831 FLYING LAPTOP

Hit Count: updated at: Mon, 17 Jun 2024 23:21:26 GMT